Starlink 35258

operational
NORAD ID: 65861 Int'l Des: 2025-223 Owner: SPXS Country: US Constellation: starlink
NOTLE

Über Starlink 35258

Beschreibung wird geladen...

Live-Position

3D-Globus wird geladen...

Nächste Überflüge

Höhenverlauf

Altitude vs Time

uPlot chart will show altitude changes over time

Zweizeiliger Elementsatz

1 65861U 25223H 25341.07659628 .00038363 00000-0 12987-2 0 9990
2 65861 53.1605 4.5288 0001404 99.7974 260.3185 15.30250111 10026
Epoch: 7. Dez. 2025 • Age: 18 hours

Aktueller Status

Höhe 474.6 km
Geschwindigkeit 7.63 km/s
Subsatellitenpunkt 10.14°N, 159.44°E
Startdatum 3. Okt. 2025
Alter 0.1 years
Typ internet

Technische Details

Klassifizierung Payload
Masse 575.00 kg
Trockenmasse 530.00 kg
Gesamtmasse 575.00 kg
Länge 0.30 m
Durchmesser 4.10 m
Spannweite 29.00 m
Form Box + pan
Hersteller SPXS
Bus-Typ Starlink V2MO
Phasenstatus In Orbit
Besitzer/Staat SPXS/US

Große Konstellationen

Loading constellations...